Location: Doussal
(55.6167°N, 116.8333°W)
Time: 13:17:15
(UTC+00:00)

VELOX 1 - Visible Passes

Search period start: 03 October 2024 00:00
Search period end: 13 October 2024 00:00
Orbit: 597 x 610 km, 98.3° (Epoch: 03 October)

Date Brightness Start Highest point End Pass type
(mag) Time Alt. Az. Time Alt. Az. Time Alt. Az.
03 Oct ? 04:57:38 10° NNE 04:58:52 19° NNE 04:58:52 19° NNE visible
03 Oct ? 06:34:28 10° NNW 06:35:41 14° NNW 06:35:41 14° NNW visible
04 Oct ? 05:10:00 10° NNE 05:11:07 18° N 05:11:07 18° N visible
04 Oct ? 06:47:09 10° NNW 06:47:56 12° NNW 06:47:56 12° NNW visible
05 Oct ? 05:22:20 10° N 05:23:20 17° N 05:23:20 17° N visible
05 Oct ? 07:00:04 10° NNW 07:00:09 10° NNW 07:00:09 10° NNW visible
05 Oct ? 13:14:05 10° ENE 13:15:16 11° NE 13:16:28 10° NNE visible
06 Oct ? 05:34:40 10° N 05:35:32 15° N 05:35:32 15° N visible
07 Oct ? 05:47:01 10° N 05:47:42 14° N 05:47:42 14° N visible
08 Oct ? 05:59:21 10° N 05:59:51 13° N 05:59:51 13° N visible
09 Oct ? 06:11:41 10° N 06:11:58 11° N 06:11:58 11° N visible
10 Oct ? 06:24:03 10° N 06:24:04 10° N 06:24:04 10° N visible
